Manado, Indonesia

2:23 PM WITA on February 08, 2016 (GMT +0800)
Ratulangi

Weather History for WAMM - July, 2013

Change the Weather History Date:

Sunday, July 21, 2013

  Actual Average Record
Temperature  
Mean Temperature 80 °F -  
Max Temperature 88 °F - - ()
Min Temperature 73 °F - - ()
Cooling Degree Days 16    
Growing Degree Days 30 (Base 50)    
Moisture  
Dew Point 74 °F    
Average Humidity 79    
Maximum Humidity 94    
Minimum Humidity 58    
Precipitation  
Precipitation 0.04 in - - ()
Sea Level Pressure  
Sea Level Pressure 29.76 in    
Wind  
Wind Speed 3 mph ()    
Max Wind Speed 8 mph    
Max Gust Speed -    
Visibility 5.7 miles    
Events Rain    
T = Trace of Precipitation, MM = Missing Value Source: Averaged Metar Reports

Daily Weather History Graph

Daily Weather History Graph

Search for Another Location

Airport or City:

Trip Planner

Search our weather history database for the weather conditions in past years. The results will help you decide how hot, cold, wet, or windy it might be!

Date:

Astronomy

Jul. 21, 2013 Rise Set
Actual Time 5:40 AM WITA 5:52 PM WITA
Civil Twilight 5:18 AM WITA 6:14 PM WITA
Nautical Twilight 4:53 AM WITA 6:40 PM WITA
Astronomical Twilight 4:27 AM WITA 7:06 PM WITA
Moon 4:22 PM WITA (7/21) 3:45 AM WITA (7/21)
Length of Visible Light 12h 55m
Length of Day
12h 11m
Waxing Gibbous, 96% of the Moon is Illuminated
Jul 21
Waxing Gibbous
Jul 23
Full
Jul 30
Last Quarter
Aug 7
New
Aug 14
First Quarter

Hourly Weather History & Observations

Time (WITA) Temp. Heat Index Dew Point Humidity Pressure Visibility Wind Dir Wind Speed Gust Speed Precip Events Conditions
2:00 AM 75 °F - 74 °F 94% 29.81 in 6 mi NW 2.3 mph - -   Partly Cloudy
5:00 AM 75 °F - 74 °F 94% 29.78 in 5 mi South 3.5 mph - - Rain Light Rain
5:00 AM 75.2 °F - 73.4 °F 94% 29.77 in 5.0 mi SSE 3.5 mph - N/A Rain Light Rain
5:30 AM 75.2 °F - 73.4 °F 94% 29.77 in 5.0 mi Calm Calm - N/A Rain Light Rain
6:00 AM 75.2 °F - 73.4 °F 94% 29.80 in 3.7 mi WNW 3.5 mph - N/A Rain Light Rain
6:30 AM 75.2 °F - 73.4 °F 94% 29.80 in 5.0 mi SSW 3.5 mph - N/A Rain Light Rain
7:00 AM 75.2 °F - 73.4 °F 94% 29.80 in 5.6 mi South 2.3 mph - N/A   Scattered Clouds
7:30 AM 77.0 °F - 75.2 °F 94% 29.80 in 5.0 mi SW 1.2 mph - N/A Rain Light Rain
8:00 AM 77 °F - 74 °F 89% 29.83 in 5 mi WSW 4.6 mph - - Rain Light Rain
8:00 AM 77.0 °F - 75.2 °F 94% 29.83 in 5.0 mi WSW 4.6 mph - N/A   Scattered Clouds
8:30 AM 78.8 °F - 75.2 °F 89% 29.83 in 5.0 mi South 5.8 mph - N/A   Scattered Clouds
9:00 AM 78.8 °F - 75.2 °F 89% 29.83 in 5.6 mi SSE 3.5 mph - N/A   Scattered Clouds
9:30 AM 78.8 °F - 75.2 °F 89% 29.80 in 6.2 mi South 3.5 mph - N/A   Scattered Clouds
10:00 AM 78.8 °F - 73.4 °F 83% 29.77 in 6.2 mi South 3.5 mph - N/A   Scattered Clouds
10:30 AM 78.8 °F - 73.4 °F 83% 29.80 in 6.2 mi SSE 3.5 mph - N/A   Scattered Clouds
11:00 AM 86 °F - 74 °F 61% 29.78 in 6 mi North 3.5 mph - -   Overcast
11:00 AM 84.2 °F 92.3 °F 75.2 °F 74% 29.77 in 6.2 mi NNW 3.5 mph - N/A   Scattered Clouds
11:30 AM 86.0 °F 95.1 °F 75.2 °F 70% 29.77 in 6.2 mi NNW 2.3 mph - N/A   Scattered Clouds
1:00 PM 87.8 °F 93.8 °F 71.6 °F 58% 29.71 in 6.2 mi NNW 4.6 mph - N/A   Partly Cloudy
1:30 PM 87.8 °F 93.8 °F 71.6 °F 58% 29.74 in 6.2 mi NW 5.8 mph - N/A   Partly Cloudy
2:00 PM 86 °F - 74 °F 59% 29.72 in 6 mi NNW 4.6 mph - -   Partly Cloudy
2:00 PM 86.0 °F 91.8 °F 71.6 °F 62% 29.71 in 6.2 mi NNW 8.1 mph - N/A   Scattered Clouds
2:30 PM 86.0 °F 93.4 °F 73.4 °F 66% 29.71 in 6.2 mi North 8.1 mph - N/A   Scattered Clouds
3:00 PM 86.0 °F 93.4 °F 73.4 °F 66% 29.71 in 6.2 mi North 8.1 mph - N/A   Scattered Clouds
4:00 PM 86.0 °F 95.1 °F 75.2 °F 70% 29.68 in 6.2 mi ESE 6.9 mph - N/A   Scattered Clouds
4:30 PM 86.0 °F 95.1 °F 75.2 °F 70% 29.71 in 6.2 mi NNE 6.9 mph - N/A   Scattered Clouds
5:00 PM 85 °F - 74 °F 63% 29.72 in 6 mi NE 5.8 mph - -   Scattered Clouds
5:00 PM 84.2 °F 90.9 °F 73.4 °F 70% 29.71 in 6.2 mi NE 5.8 mph - N/A   Scattered Clouds
5:30 PM 82.4 °F 89.5 °F 75.2 °F 79% 29.71 in 5.6 mi SE 4.6 mph - N/A   Scattered Clouds
6:00 PM 82.4 °F 89.5 °F 75.2 °F 79% 29.71 in 5.6 mi SE 3.5 mph - N/A   Scattered Clouds
6:30 PM 80.6 °F 85.4 °F 73.4 °F 79% 29.74 in 5.6 mi SE 2.3 mph - N/A   Scattered Clouds
7:00 PM 80.6 °F 85.4 °F 73.4 °F 79% 29.74 in 5.6 mi SE 4.6 mph - N/A   Scattered Clouds
7:30 PM 78.8 °F - 73.4 °F 83% 29.74 in 5.6 mi ESE 5.8 mph - N/A   Scattered Clouds
8:00 PM 80 °F - 74 °F 76% 29.77 in 6 mi SSE 3.5 mph - -   Scattered Clouds
8:00 PM 78.8 °F - 73.4 °F 83% 29.74 in 5.6 mi SE 3.5 mph - N/A   Scattered Clouds
9:00 PM 80.6 °F 85.4 °F 73.4 °F 79% 29.80 in 5.6 mi SSE 3.5 mph - N/A   Scattered Clouds
10:00 PM 78.8 °F - 73.4 °F 83% 29.80 in 5.0 mi SE 4.6 mph - N/A Rain Light Rain
11:00 PM 79 °F - 73 °F 76% 29.82 in 6 mi SSE 2.3 mph - -   Scattered Clouds
11:00 PM 78.8 °F - 73.4 °F 83% 29.80 in 5.6 mi SSE 2.3 mph - N/A   Scattered Clouds